State College, PA

12:36 PM EDT on July 28, 2017 (GMT -0400)
University Park

Weather History for KUNV - October, 2013

Change the Weather History Date:

Sunday, October 20, 2013

  Actual Average Record
Temperature  
Mean Temperature 50 °F -  
Max Temperature 59 °F 57 °F 81 °F (1963)
Min Temperature 41 °F 36 °F 20 °F (1972)
Degree Days  
Heating Degree Days 15    
Moisture  
Dew Point 35 °F    
Average Humidity 65    
Maximum Humidity 81    
Minimum Humidity 36    
Precipitation  
Precipitation 0.00 in - - ()
Sea Level Pressure  
Sea Level Pressure 29.97 in    
Wind  
Wind Speed 10 mph (WSW)    
Max Wind Speed 15 mph    
Max Gust Speed 23 mph    
Visibility 10 miles    
Events      
Averages and records for this station are not official NWS values.
T = Trace of Precipitation, MM = Missing Value Source: NWS Daily Summary

Daily Weather History Graph

Daily Weather History Graph

Search for Another Location

Airport or City:

Trip Planner

Search our weather history database for the weather conditions in past years. The results will help you decide how hot, cold, wet, or windy it might be!

Date:

Astronomy

Oct. 20, 2013 Rise Set
Actual Time 7:28 AM EDT 6:23 PM EDT
Civil Twilight 7:00 AM EDT 6:50 PM EDT
Nautical Twilight 6:28 AM EDT 7:22 PM EDT
Astronomical Twilight 5:56 AM EDT 7:54 PM EDT
Moon 7:29 PM EDT (10/20) 9:04 AM EDT (10/20)
Length of Visible Light 11h 50m
Length of Day
10h 54m
Full, 97% of the Moon is Illuminated
Oct 20
Full
Oct 26
Last Quarter
Nov 3
New
Nov 10
First Quarter
Nov 17
Full

Hourly Weather History & Observations

Time (EDT) Temp. Windchill Dew Point Humidity Pressure Visibility Wind Dir Wind Speed Gust Speed Precip Events Conditions
12:15 AM 46.0 °F 40.2 °F 37.6 °F 72% 29.87 in 10.0 mi WSW 12.7 mph - N/A   Overcast
12:35 AM 45.5 °F 38.9 °F 37.0 °F 72% 29.87 in 10.0 mi West 15.0 mph 18.4 mph N/A   Overcast
12:55 AM 45.5 °F 39.9 °F 36.7 °F 71% 29.88 in 10.0 mi West 11.5 mph 19.6 mph N/A   Overcast
1:15 AM 45.1 °F 39.1 °F 36.1 °F 71% 29.88 in 10.0 mi WSW 12.7 mph 23.0 mph N/A   Overcast
1:35 AM 44.2 °F 38.0 °F 35.8 °F 72% 29.89 in 10.0 mi West 12.7 mph 20.7 mph N/A   Mostly Cloudy
1:55 AM 44.6 °F 39.2 °F 36.1 °F 72% 29.90 in 10.0 mi West 10.4 mph 17.3 mph N/A   Mostly Cloudy
2:15 AM 44.8 °F 39.9 °F 35.8 °F 71% 29.90 in 10.0 mi West 9.2 mph 18.4 mph N/A   Overcast
2:35 AM 44.2 °F 38.0 °F 35.6 °F 72% 29.90 in 10.0 mi West 12.7 mph - N/A   Overcast
2:55 AM 44.4 °F 39.5 °F 35.1 °F 70% 29.91 in 10.0 mi WSW 9.2 mph 17.3 mph N/A   Mostly Cloudy
3:15 AM 43.9 °F 38.3 °F 35.6 °F 73% 29.91 in 10.0 mi West 10.4 mph - N/A   Mostly Cloudy
3:35 AM 43.3 °F 38.6 °F 35.4 °F 74% 29.91 in 10.0 mi West 8.1 mph - N/A   Mostly Cloudy
3:55 AM 43.7 °F 39.1 °F 35.2 °F 72% 29.91 in 10.0 mi West 8.1 mph - N/A   Mostly Cloudy
4:15 AM 43.7 °F 39.7 °F 35.4 °F 73% 29.91 in 10.0 mi West 6.9 mph - N/A   Mostly Cloudy
4:35 AM 43.7 °F 38.6 °F 34.9 °F 71% 29.92 in 10.0 mi West 9.2 mph - N/A   Overcast
4:55 AM 43.7 °F 38.6 °F 35.4 °F 73% 29.93 in 10.0 mi West 9.2 mph - N/A   Overcast
5:15 AM 43.7 °F 37.7 °F 35.4 °F 73% 29.93 in 10.0 mi WSW 11.5 mph - N/A   Overcast
5:35 AM 43.7 °F 39.7 °F 35.2 °F 72% 29.93 in 10.0 mi WSW 6.9 mph - N/A   Overcast
5:53 AM 42.8 °F 39.3 °F 35.6 °F 76% 29.93 in 10.0 mi WSW 5.8 mph - N/A   Overcast
7:53 AM 41.0 °F - 35.6 °F 81% 29.97 in 10.0 mi Calm Calm - N/A   Clear
8:53 AM 42.8 °F 39.3 °F 37.4 °F 81% 29.98 in 10.0 mi WSW 5.8 mph - N/A   Clear
9:53 AM 46.4 °F 41.1 °F 37.4 °F 71% 29.99 in 10.0 mi WSW 11.5 mph - N/A   Clear
10:53 AM 50.0 °F - 37.4 °F 62% 30.00 in 10.0 mi West 8.1 mph - N/A   Scattered Clouds
11:53 AM 51.8 °F - 37.4 °F 58% 30.00 in 10.0 mi West 11.5 mph 17.3 mph N/A   Mostly Cloudy
12:53 PM 55.4 °F - 33.8 °F 44% 30.00 in 10.0 mi West 15.0 mph 20.7 mph N/A   Mostly Cloudy
1:53 PM 57.2 °F - 33.8 °F 41% 29.99 in 10.0 mi West 11.5 mph 18.4 mph N/A   Mostly Cloudy
2:53 PM 59.0 °F - 32.0 °F 36% 29.98 in 10.0 mi West 13.8 mph 23.0 mph N/A   Mostly Cloudy
3:53 PM 59.0 °F - 32.0 °F 36% 29.98 in 10.0 mi West 13.8 mph 17.3 mph N/A   Mostly Cloudy
4:58 PM 57.2 °F - 33.8 °F 41% 29.99 in 10.0 mi WSW 12.7 mph - N/A   Mostly Cloudy
5:53 PM 55.4 °F - 33.8 °F 44% 30.00 in 10.0 mi West 9.2 mph - N/A   Mostly Cloudy
6:53 PM 51.8 °F - 33.8 °F 50% 30.01 in 10.0 mi West 5.8 mph - N/A   Scattered Clouds
7:53 PM 50.0 °F - 33.8 °F 54% 30.03 in 10.0 mi West 5.8 mph - N/A   Clear
8:53 PM 46.4 °F 44.3 °F 33.8 °F 62% 30.04 in 10.0 mi WSW 4.6 mph - N/A   Scattered Clouds
9:35 PM 47.1 °F - 34.5 °F 62% 30.05 in 10.0 mi SW 5.8 mph - N/A   Clear
9:55 PM 46.2 °F 44.1 °F 34.5 °F 64% 30.05 in 10.0 mi WSW 4.6 mph - N/A   Clear
10:15 PM 46.0 °F 43.1 °F 34.7 °F 65% 30.05 in 10.0 mi West 5.8 mph - N/A   Clear
10:35 PM 46.8 °F - 34.3 °F 62% 30.05 in 10.0 mi WSW 5.8 mph - N/A   Clear
10:55 PM 45.7 °F 44.4 °F 34.2 °F 64% 30.05 in 10.0 mi SSW 3.5 mph - N/A   Clear
11:15 PM 43.9 °F - 34.5 °F 70% 30.05 in 10.0 mi Calm Calm - N/A   Clear
11:35 PM 43.2 °F - 34.7 °F 72% 30.05 in 10.0 mi Calm Calm - N/A   Clear
11:55 PM 43.7 °F - 34.3 °F 70% 30.05 in 10.0 mi Calm Calm - N/A   Clear